User: anonymous   Login
Location: Mentone
(34.5413°N, 85.5351°W)
Time: 16:27:24
(UTC-05:00)
Language:

AO-Echo - Orbit

View from above orbital plane
View from above orbital plane
View from above satellite
View from above satellite

Ground track
Ground track

The orbit data is extracted from the following two-line orbital elements,

1 28375U 04025K   14303.91520858  .00000320  00000-0  10799-3 0  9810
2 28375 098.2659 246.3000 0081770 302.5567 056.7743 14.41479085543458
Epoch (UTC): 30 October 2014 21:57:54
Eccentricity: 0.0081770
inclination: 98.2659°
perigee height: 695 km
apogee height: 812 km
right ascension of ascending node: 246.3000°
argument of perigee: 302.5567°
revolutions per day: 14.41479085
mean anomaly at epoch: 56.7743°
orbit number at epoch: 54345

The dashed part of the orbit path shows where the satellite is in the earth's shadow,  

DLR